Location: Elkol
(41.7238°N, 110.6124°W)
Time: 00:21:50
(UTC+00:00)

BlueWalker 3 - Pass Details

Date: 08 December 2022
Orbit: 499 x 517 km, 53.2° (Epoch: 05 February)

Event Time Altitude Azimuth Distance (km) Brightness Sun altitude
Rises 01:42:36 0° 311° (NW) 2,625 6.1 -20.0°
Reaches altitude 10° 01:44:54 10° 318° (NW) 1,732 5.0 -20.4°
Enters shadow 01:47:55 37° 1° (N) 799 2.8 -21.0°
